Starlink 35743

operational
NORAD ID: 66578 Int'l Des: 2025-268 Owner: SPXS Country: US Constellation: starlink
LEOCIRCULAR

关于 Starlink 35743

正在加载描述...

实时位置

正在加载3D地球...

即将过境

高度历史

Altitude vs Time

uPlot chart will show altitude changes over time

两行轨道根数

1 66578U 25268X 26062.23921959 .00043944 00000-0 15955-2 0 9992
2 66578 43.0006 23.4513 0001495 267.6196 92.4485 15.27608930 16977
Epoch: Mar 3, 2026 • Age: 33 hours

当前状态

高度 485.6 km
速度 7.63 km/s
星下点 37.58°N, 154.14°W
发射日期 Nov 21, 2025
运行时间 0.2 years
类型 internet

技术详情

分类 Payload
质量 575.00 kg
干质量 530.00 kg
总质量 575.00 kg
长度 0.30 m
直径 4.10 m
跨度 29.00 m
形状 Box + pan
制造商 SPXS
平台类型 Starlink V2MO
阶段状态 In Orbit
所有者/国家 SPXS/US

大型星座

Loading constellations...